{"data":{"norad_id":51736,"epoch":"2026-05-24T23:04:46.984224Z","epoch_age_seconds":78551,"freshness":"FRESH","line1":"1 51736U 22016Y   26144.96165491 -.00001856  00000+0 -98506-4 0  9994","line2":"2 51736  53.2131 336.8098 0001334  85.7507 274.3638 15.08845289235079","mean_motion":15.08845289,"eccentricity":0.0001334,"inclination_deg":53.2131,"raan_deg":336.8098,"arg_perigee_deg":85.7507,"mean_anomaly_deg":274.3638,"bstar":-9.8506e-5,"rev_number":23507,"period_min":95.437220137684,"perigee_km":538.80437956692,"apogee_km":540.65006574153,"semimajor_km":6917.8642226542,"source":"CELESTRAK","updated_at":"2026-05-25T13:38:16.923958Z"}}